| time (UTC) | temp F | wind direction | speed MPH | gust MPH | rain 1hr in | rain 24hr in | rain mn in | humidity % | barometer mb |
| 20260903081006 | 58 | 313 | 21.0 | 26.0 | 0.00 | 0.20 | 0.18 | 97 | 1017.3 |
| 20260903080007 | 58 | 314 | 23.0 | 29.0 | 0.00 | 0.20 | 0.18 | 97 | 1017.3 |
| 20260903075506 | 58 | 311 | 20.0 | 29.0 | 0.00 | 0.20 | 0.18 | 97 | 1017.2 |
| 20260903075006 | 58 | 314 | 22.0 | 29.0 | 0.00 | 0.20 | 0.18 | 97 | 1017.1 |
| 20260903074506 | 58 | 311 | 21.0 | 29.0 | 0.00 | 0.20 | 0.18 | 97 | 1017.3 |
| 20260903074007 | 57 | 312 | 21.0 | 26.0 | 0.00 | 0.20 | 0.18 | 97 | 1017.1 |
| 20260903073507 | 58 | 313 | 18.0 | 28.0 | 0.00 | 0.20 | 0.18 | 97 | 1017.1 |
| 20260903073006 | 58 | 320 | 21.0 | 25.0 | 0.00 | 0.20 | 0.18 | 97 | 1017.0 |
| 20260903072505 | 58 | 313 | 20.0 | 25.0 | 0.00 | 0.20 | 0.18 | 97 | 1017.1 |
| 20260903072006 | 58 | 309 | 21.0 | 30.0 | 0.00 | 0.20 | 0.18 | 97 | 1017.2 |
| 20260903071507 | 58 | 313 | 23.0 | 30.0 | 0.00 | 0.20 | 0.18 | 97 | 1016.8 |
| 20260903071006 | 58 | 310 | 22.0 | 30.0 | 0.00 | 0.20 | 0.18 | 97 | 1016.7 |
| 20260903065006 | 57 | 320 | 22.0 | 28.0 | 0.00 | 0.20 | 0.18 | 96 | 1016.8 |
| 20260903062006 | 57 | 319 | 23.0 | 31.0 | 0.00 | 0.20 | 0.18 | 95 | 1016.8 |
| 20260903061006 | 57 | 312 | 25.0 | 32.0 | 0.02 | 0.20 | 0.18 | 95 | 1016.7 |
| 20260903060506 | 57 | 320 | 21.0 | 31.0 | 0.02 | 0.20 | 0.18 | 94 | 1016.7 |
| 20260903055508 | 57 | 312 | 17.0 | 25.0 | 0.03 | 0.20 | 0.18 | 94 | 1016.8 |
| 20260903055005 | 57 | 259 | 10.0 | 28.0 | 0.03 | 0.20 | 0.18 | 94 | 1016.6 |
| 20260903054505 | 57 | 317 | 23.0 | 36.0 | 0.03 | 0.20 | 0.18 | 94 | 1016.9 |
| 20260903054007 | 57 | 320 | 29.0 | 40.0 | 0.03 | 0.20 | 0.18 | 93 | 1016.4 |
| 20260903052007 | 57 | 322 | 23.0 | 30.0 | 0.02 | 0.20 | 0.17 | 90 | 1016.7 |
| 20260903051005 | 57 | 319 | 20.0 | 31.0 | 0.01 | 0.19 | 0.16 | 88 | 1016.7 |
| 20260903050005 | 58 | 303 | 21.0 | 35.0 | 0.00 | 0.17 | 0.15 | 85 | 1016.7 |
| 20260903045005 | 58 | 318 | 21.0 | 28.0 | 0.00 | 0.17 | 0.15 | 83 | 1016.7 |
| 20260903044007 | 58 | 320 | 24.0 | 32.0 | 0.00 | 0.17 | 0.15 | 82 | 1016.8 |
| 20260903043006 | 59 | 310 | 18.0 | 29.0 | 0.00 | 0.17 | 0.15 | 82 | 1016.8 |
| 20260903042507 | 59 | 321 | 24.0 | 33.0 | 0.00 | 0.17 | 0.15 | 81 | 1016.7 |
| 20260903042006 | 59 | 314 | 22.0 | 28.0 | 0.00 | 0.17 | 0.15 | 81 | 1017.0 |
| 20260903041506 | 59 | 319 | 20.0 | 32.0 | 0.00 | 0.17 | 0.15 | 81 | 1016.9 |
| 20260903040505 | 58 | 316 | 23.0 | 33.0 | 0.00 | 0.17 | 0.15 | 81 | 1016.9 |
| 20260903040008 | 58 | 314 | 23.0 | 31.0 | 0.00 | 0.17 | 0.15 | 81 | 1017.0 |
| 20260903034505 | 59 | 314 | 24.0 | 32.0 | 0.00 | 0.17 | 0.15 | 80 | 1017.1 |
| 20260903033007 | 59 | 307 | 19.0 | 30.0 | 0.00 | 0.17 | 0.15 | 80 | 1017.4 |
| 20260903032505 | 60 | 304 | 18.0 | 35.0 | 0.00 | 0.17 | 0.15 | 79 | 1017.3 |
| 20260903031008 | 60 | 304 | 20.0 | 32.0 | 0.00 | 0.17 | 0.15 | 79 | 1017.3 |
| 20260903025007 | 60 | 313 | 24.0 | 32.0 | 0.00 | 0.17 | 0.15 | 79 | 1017.6 |
| 20260903024505 | 60 | 317 | 21.0 | 29.0 | 0.00 | 0.17 | 0.15 | 79 | 1017.4 |
| 20260903024005 | 60 | 317 | 24.0 | 31.0 | 0.00 | 0.17 | 0.15 | 78 | 1017.6 |
| 20260903023007 | 61 | 305 | 20.0 | 29.0 | 0.00 | 0.17 | 0.15 | 78 | 1017.4 |
| 20260903022505 | 61 | 319 | 21.0 | 29.0 | 0.00 | 0.17 | 0.15 | 79 | 1017.7 |
| 20260903021506 | 62 | 311 | 18.0 | 29.0 | 0.00 | 0.17 | 0.15 | 81 | 1017.6 |
| 20260903020505 | 62 | 312 | 19.0 | 29.0 | 0.00 | 0.17 | 0.15 | 81 | 1017.7 |
| 20260903020005 | 62 | 309 | 17.0 | 28.0 | 0.00 | 0.17 | 0.15 | 79 | 1018.0 |
| 20260903015006 | 63 | 306 | 14.0 | 26.0 | 0.00 | 0.17 | 0.15 | 79 | 1018.0 |
| 20260903014505 | 63 | 309 | 19.0 | 25.0 | 0.00 | 0.17 | 0.15 | 78 | 1018.1 |
| 20260903014005 | 64 | 310 | 18.0 | 24.0 | 0.00 | 0.17 | 0.15 | 78 | 1018.1 |
| 20260903013506 | 64 | 317 | 21.0 | 29.0 | 0.00 | 0.17 | 0.15 | 77 | 1018.2 |
| 20260903013006 | 64 | 302 | 13.0 | 26.0 | 0.00 | 0.17 | 0.15 | 77 | 1018.2 |
| 20260903012007 | 65 | 298 | 17.0 | 24.0 | 0.00 | 0.17 | 0.15 | 78 | 1018.5 |
| 20260903011505 | 65 | 304 | 13.0 | 24.0 | 0.00 | 0.17 | 0.15 | 77 | 1018.4 |
| 20260903010506 | 65 | 280 | 11.0 | 20.0 | 0.00 | 0.17 | 0.15 | 77 | 1018.6 |
| 20260903005505 | 65 | 288 | 12.0 | 23.0 | 0.00 | 0.17 | 0.15 | 78 | 1018.6 |
| 20260903004505 | 65 | 286 | 12.0 | 23.0 | 0.00 | 0.17 | 0.15 | 79 | 1018.9 |
| 20260903004005 | 65 | 307 | 11.0 | 22.0 | 0.00 | 0.17 | 0.15 | 80 | 1019.1 |
| 20260903003506 | 65 | 289 | 10.0 | 21.0 | 0.00 | 0.17 | 0.15 | 79 | 1019.0 |
| 20260903003005 | 65 | 308 | 12.0 | 20.0 | 0.00 | 0.17 | 0.15 | 80 | 1019.1 |
| 20260903002505 | 65 | 272 | 10.0 | 23.0 | 0.00 | 0.17 | 0.15 | 79 | 1019.2 |
| 20260903002004 | 65 | 315 | 18.0 | 25.0 | 0.00 | 0.17 | 0.15 | 79 | 1019.2 |
| 20260903001005 | 65 | 315 | 20.0 | 24.0 | 0.00 | 0.17 | 0.15 | 81 | 1019.2 |
| 20260903000006 | 64 | 319 | 21.0 | 29.0 | 0.00 | 0.17 | 0.15 | 79 | 1019.2 |
| 20260902234505 | 64 | 318 | 16.0 | 23.0 | 0.00 | 0.17 | 0.15 | 81 | 1019.3 |
| 20260902234006 | 63 | 323 | 16.0 | 24.0 | 0.00 | 0.17 | 0.15 | 81 | 1019.4 |
| 20260902233505 | 63 | 315 | 14.0 | 22.0 | 0.00 | 0.17 | 0.15 | 82 | 1019.6 |
| 20260902232506 | 63 | 308 | 17.0 | 22.0 | 0.00 | 0.17 | 0.15 | 81 | 1019.4 |
| 20260902231505 | 63 | 304 | 14.0 | 24.0 | 0.00 | 0.17 | 0.15 | 82 | 1019.2 |
| 20260902231006 | 63 | 305 | 14.0 | 23.0 | 0.00 | 0.17 | 0.15 | 82 | 1019.3 |
| 20260902230005 | 63 | 308 | 18.0 | 25.0 | 0.00 | 0.17 | 0.15 | 83 | 1019.5 |
| 20260902225506 | 63 | 306 | 16.0 | 26.0 | 0.00 | 0.17 | 0.15 | 83 | 1019.3 |
| 20260902225005 | 63 | 309 | 15.0 | 25.0 | 0.00 | 0.17 | 0.15 | 84 | 1019.3 |
| 20260902224504 | 63 | 309 | 19.0 | 24.0 | 0.00 | 0.17 | 0.15 | 84 | 1019.2 |
| 20260902223506 | 62 | 306 | 12.0 | 21.0 | 0.00 | 0.17 | 0.15 | 86 | 1019.2 |
| 20260902223005 | 62 | 265 | 8.0 | 22.0 | 0.00 | 0.17 | 0.15 | 85 | 1019.4 |
| 20260902222505 | 62 | 306 | 14.0 | 23.0 | 0.00 | 0.17 | 0.15 | 86 | 1019.4 |
| 20260902221006 | 61 | 312 | 18.0 | 24.0 | 0.00 | 0.17 | 0.15 | 87 | 1019.5 |
| 20260902220504 | 61 | 317 | 19.0 | 24.0 | 0.00 | 0.17 | 0.15 | 87 | 1019.5 |
| 20260902215506 | 60 | 306 | 20.0 | 25.0 | 0.00 | 0.17 | 0.15 | 87 | 1019.6 |
| 20260902215005 | 60 | 316 | 21.0 | 25.0 | 0.00 | 0.17 | 0.15 | 87 | 1019.5 |
| 20260902213005 | 59 | 308 | 21.0 | 28.0 | 0.00 | 0.17 | 0.15 | 88 | 1019.5 |
| 20260902210005 | 58 | 311 | 16.0 | 18.0 | 0.00 | 0.17 | 0.15 | 92 | 1019.5 |
| 20260902204004 | 57 | 316 | 12.0 | 16.0 | 0.00 | 0.17 | 0.15 | 95 | 1019.5 |
| 20260902203508 | 56 | 316 | 13.0 | 15.0 | 0.00 | 0.17 | 0.15 | 95 | 1019.4 |
| 20260902202005 | 55 | 320 | 12.0 | 16.0 | 0.00 | 0.17 | 0.15 | 95 | 1019.7 |
| 20260902200505 | 54 | 315 | 13.0 | 17.0 | 0.00 | 0.17 | 0.15 | 95 | 1019.6 |
| 20260902195005 | 53 | 319 | 3.0 | 7.0 | 0.00 | 0.17 | 0.15 | 95 | 1019.3 |
| 20260902194504 | 53 | 323 | 5.0 | 7.0 | 0.00 | 0.17 | 0.15 | 95 | 1019.4 |
| 20260902194006 | 53 | 288 | 3.0 | 8.0 | 0.00 | 0.17 | 0.15 | 95 | 1019.4 |
| 20260902193005 | 53 | 326 | 6.0 | 8.0 | 0.00 | 0.17 | 0.15 | 94 | 1019.3 |
| 20260902192504 | 53 | 324 | 7.0 | 12.0 | 0.00 | 0.17 | 0.15 | 94 | 1019.2 |
| 20260902192004 | 52 | 323 | 10.0 | 13.0 | 0.00 | 0.17 | 0.15 | 94 | 1019.4 |
| 20260902185505 | 52 | 325 | 4.0 | 8.0 | 0.00 | 0.17 | 0.15 | 94 | 1019.3 |
| 20260902185005 | 53 | 317 | 4.0 | 8.0 | 0.00 | 0.17 | 0.15 | 94 | 1019.1 |
| 20260902184505 | 53 | 325 | 5.0 | 7.0 | 0.00 | 0.17 | 0.15 | 94 | 1019.1 |
| 20260902183006 | 53 | 325 | 5.0 | 7.0 | 0.00 | 0.17 | 0.15 | 94 | 1019.1 |
| 20260902182504 | 53 | 270 | 4.0 | 5.0 | 0.00 | 0.17 | 0.15 | 94 | 1019.0 |
| 20260902174004 | 53 | 268 | 5.0 | 7.0 | 0.02 | 0.17 | 0.15 | 95 | 1018.8 |
| 20260902173506 | 53 | 277 | 5.0 | 10.0 | 0.03 | 0.17 | 0.15 | 96 | 1018.8 |
| 20260902172504 | 53 | 283 | 3.0 | 10.0 | 0.03 | 0.17 | 0.15 | 96 | 1018.9 |
| 20260902170006 | 53 | 258 | 10.0 | 16.0 | 0.03 | 0.17 | 0.15 | 96 | 1018.9 |
| 20260902165506 | 53 | 290 | 8.0 | 21.0 | 0.03 | 0.17 | 0.15 | 96 | 1018.9 |
| 20260902164506 | 53 | 311 | 16.0 | 18.0 | 0.03 | 0.15 | 0.13 | 95 | 1018.7 |
| 20260902162506 | 53 | 312 | 9.0 | 10.0 | 0.12 | 0.15 | 0.12 | 94 | 1018.7 |
| 20260902161006 | 53 | 312 | 8.0 | 10.0 | 0.12 | 0.14 | 0.12 | 94 | 1018.6 |
| 20260902160010 | 53 | 312 | 10.0 | 15.0 | 0.12 | 0.14 | 0.12 | 93 | 1019.0 |
| 20260902155506 | 54 | 308 | 10.0 | 14.0 | 0.12 | 0.14 | 0.12 | 93 | 1018.9 |
| 20260902155008 | 54 | 312 | 11.0 | 15.0 | 0.11 | 0.14 | 0.11 | 93 | 1019.1 |
| 20260902154506 | 54 | 305 | 10.0 | 14.0 | 0.10 | 0.12 | 0.10 | 93 | 1018.7 |
| 20260902153506 | 54 | 307 | 13.0 | 18.0 | 0.05 | 0.07 | 0.05 | 92 | 1018.9 |
| 20260902153008 | 54 | 281 | 7.0 | 18.0 | 0.03 | 0.05 | 0.03 | 91 | 1019.0 |
| 20260902152506 | 55 | 302 | 10.0 | 18.0 | 0.00 | 0.03 | 0.00 | 90 | 1019.1 |
| 20260902152007 | 55 | 270 | 9.0 | 18.0 | 0.00 | 0.02 | 0.00 | 90 | 1019.1 |
| 20260902150007 | 55 | 288 | 7.0 | 14.0 | 0.00 | 0.02 | 0.00 | 89 | 1019.2 |
| 20260902145506 | 54 | 278 | 6.0 | 12.0 | 0.00 | 0.02 | 0.00 | 89 | 1019.2 |
| 20260902144007 | 54 | 305 | 8.0 | 12.0 | 0.00 | 0.02 | 0.00 | 89 | 1019.5 |
| 20260902143507 | 54 | 235 | 10.0 | 16.0 | 0.00 | 0.02 | 0.00 | 89 | 1019.5 |
| 20260902143006 | 54 | 273 | 7.0 | 13.0 | 0.00 | 0.02 | 0.00 | 90 | 1019.3 |
| 20260902142006 | 54 | 295 | 6.0 | 13.0 | 0.00 | 0.02 | 0.00 | 90 | 1019.4 |
| 20260902140505 | 54 | 275 | 6.0 | 15.0 | 0.00 | 0.02 | 0.00 | 90 | 1019.3 |
| 20260902135506 | 54 | 280 | 7.0 | 16.0 | 0.00 | 0.02 | 0.00 | 91 | 1019.3 |
| 20260902135008 | 54 | 268 | 9.0 | 16.0 | 0.00 | 0.02 | 0.00 | 92 | 1019.3 |
| 20260902134506 | 54 | 276 | 7.0 | 14.0 | 0.00 | 0.02 | 0.00 | 92 | 1019.4 |
| 20260902134007 | 54 | 312 | 8.0 | 16.0 | 0.00 | 0.02 | 0.00 | 92 | 1019.3 |
| 20260902133008 | 54 | 267 | 6.0 | 14.0 | 0.00 | 0.02 | 0.00 | 92 | 1019.2 |
| 20260902132506 | 54 | 307 | 9.0 | 16.0 | 0.00 | 0.02 | 0.00 | 92 | 1019.4 |
| 20260902132006 | 54 | 278 | 7.0 | 16.0 | 0.00 | 0.02 | 0.00 | 92 | 1019.3 |
| 20260902131508 | 54 | 259 | 9.0 | 15.0 | 0.00 | 0.02 | 0.00 | 93 | 1019.2 |
| 20260902131006 | 54 | 268 | 8.0 | 16.0 | 0.00 | 0.02 | 0.00 | 93 | 1019.4 |
| 20260902130505 | 54 | 258 | 6.0 | 16.0 | 0.00 | 0.02 | 0.00 | 93 | 1019.4 |
| 20260902124506 | 54 | 286 | 6.0 | 14.0 | 0.00 | 0.02 | 0.00 | 93 | 1019.1 |
| 20260902124006 | 55 | 299 | 8.0 | 18.0 | 0.00 | 0.02 | 0.00 | 94 | 1018.9 |
| 20260902123008 | 55 | 310 | 17.0 | 22.0 | 0.00 | 0.02 | 0.00 | 94 | 1018.8 |
| 20260902122508 | 55 | 293 | 7.0 | 14.0 | 0.00 | 0.02 | 0.00 | 94 | 1018.9 |
| 20260902121508 | 54 | 308 | 7.0 | 13.0 | 0.00 | 0.02 | 0.00 | 94 | 1019.2 |
| 20260902114506 | 54 | 291 | 8.0 | 15.0 | 0.00 | 0.02 | 0.02 | 94 | 1019.1 |
| 20260902114008 | 54 | 306 | 9.0 | 15.0 | 0.00 | 0.02 | 0.02 | 94 | 1019.0 |
| 20260902113006 | 54 | 307 | 12.0 | 18.0 | 0.00 | 0.02 | 0.02 | 94 | 1018.9 |
| 20260902112006 | 54 | 313 | 11.0 | 15.0 | 0.00 | 0.02 | 0.02 | 94 | 1019.0 |
| 20260902111505 | 54 | 307 | 9.0 | 13.0 | 0.00 | 0.02 | 0.02 | 94 | 1019.0 |
| 20260902105006 | 53 | 319 | 5.0 | 8.0 | 0.00 | 0.02 | 0.02 | 94 | 1019.1 |
| 20260902103508 | 53 | 320 | 9.0 | 13.0 | 0.00 | 0.02 | 0.02 | 94 | 1019.0 |
| 20260902102007 | 53 | 283 | 6.0 | 12.0 | 0.00 | 0.02 | 0.02 | 94 | 1019.0 |
| 20260902101007 | 54 | 309 | 9.0 | 14.0 | 0.00 | 0.02 | 0.02 | 94 | 1019.1 |
| 20260902100006 | 54 | 304 | 7.0 | 20.0 | 0.01 | 0.02 | 0.02 | 94 | 1019.2 |
| 20260902095506 | 54 | 315 | 11.0 | 16.0 | 0.01 | 0.02 | 0.02 | 94 | 1019.4 |
| 20260902094006 | 53 | 303 | 6.0 | 12.0 | 0.01 | 0.02 | 0.02 | 94 | 1019.1 |
| 20260902093008 | 53 | 314 | 6.0 | 13.0 | 0.01 | 0.02 | 0.02 | 93 | 1019.1 |
| 20260902092506 | 53 | 289 | 6.0 | 14.0 | 0.02 | 0.02 | 0.02 | 93 | 1019.1 |
| 20260902092006 | 53 | 305 | 7.0 | 15.0 | 0.02 | 0.02 | 0.02 | 93 | 1019.0 |
| 20260902091006 | 53 | 256 | 9.0 | 13.0 | 0.01 | 0.02 | 0.02 | 93 | 1019.1 |
| 20260902085007 | 54 | 264 | 9.0 | 18.0 | 0.00 | 0.01 | 0.01 | 93 | 1019.0 |
| 20260902084507 | 54 | 270 | 9.0 | 17.0 | 0.00 | 0.01 | 0.01 | 93 | 1018.9 |
| 20260902082507 | 54 | 240 | 12.0 | 21.0 | 0.00 | 0.00 | 0.00 | 93 | 1019.1 |